• In Russia
  • List of Countries
  • For 7 days
  • Water Temperature
  • Weather Map
  • Weather Widgets
  • user-avatar
    Login

    Hourly Weather Kurytyba

    Today, 5 December, Thursday

    Time Temperature Precipitation Wind Pressure Humidity
    00:00 +19°C° 0 mm 1 mps 679 mmHg 96%
    01:00 +19°C° 0.7 mm 1 mps 678 mmHg 96%
    02:00 +19°C° 0.7 mm 1 mps 678 mmHg 97%
    03:00 +19°C° 0 mm 1 mps 677 mmHg 97%
    04:00 +20°C° 0.7 mm 1 mps 677 mmHg 97%
    05:00 +20°C° 0.7 mm 1 mps 677 mmHg 97%
    06:00 +19°C° 0.7 mm 2 mps 677 mmHg 97%
    07:00 +20°C° 0.6 mm 2 mps 678 mmHg 94%
    08:00 +21°C° 0.6 mm 2 mps 678 mmHg 90%
    09:00 +24°C° 0 mm 2 mps 679 mmHg 87%
    10:00 +24°C° 2.1 mm 2 mps 678 mmHg 88%
    11:00 +24°C° 2.1 mm 2 mps 677 mmHg 89%
    12:00 +24°C° 2.1 mm 2 mps 677 mmHg 90%
    13:00 +23°C° 11.1 mm 2 mps 676 mmHg 92%
    14:00 +22°C° 11.1 mm 1 mps 676 mmHg 94%
    15:00 +21°C° 11.1 mm 1 mps 675 mmHg 97%
    16:00 +22°C° 0.8 mm 1 mps 676 mmHg 95%
    17:00 +20°C° 0.8 mm 0 mps 676 mmHg 93%
    18:00 +20°C° 0.8 mm 0 mps 676 mmHg 90%
    19:00 +22°C° 0.4 mm 1 mps 677 mmHg 92%
    20:00 +21°C° 0.4 mm 1 mps 677 mmHg 94%
    21:00 +20°C° 0.4 mm 1 mps 677 mmHg 96%
    22:00 +20°C° 0.1 mm 1 mps 677 mmHg 96%
    23:00 +19°C° 0.1 mm 1 mps 677 mmHg 96%

    Tomorrow, 6 December, Friday

    Time Temperature Precipitation Wind Pressure Humidity
    00:00 +19°C° 0.1 mm 1 mps 677 mmHg 96%
    01:00 +18°C° 0 mm 1 mps 677 mmHg 96%
    02:00 +18°C° 0 mm 1 mps 677 mmHg 96%
    03:00 +18°C° 0 mm 1 mps 677 mmHg 96%
    04:00 +18°C° 0 mm 1 mps 678 mmHg 96%
    05:00 +18°C° 0 mm 1 mps 678 mmHg 96%
    06:00 +18°C° 0 mm 1 mps 678 mmHg 96%
    07:00 +18°C° 0 mm 1 mps 678 mmHg 94%
    08:00 +19°C° 0 mm 1 mps 679 mmHg 92%
    09:00 +20°C° 0 mm 1 mps 679 mmHg 89%
    10:00 +20°C° 0 mm 1 mps 679 mmHg 86%
    11:00 +21°C° 0 mm 1 mps 679 mmHg 83%
    12:00 +22°C° 0 mm 1 mps 679 mmHg 80%
    13:00 +23°C° 0.1 mm 1 mps 679 mmHg 72%
    14:00 +25°C° 0.1 mm 1 mps 678 mmHg 64%
    15:00 +26°C° 0.1 mm 1 mps 678 mmHg 56%
    16:00 +25°C° 0 mm 1 mps 678 mmHg 62%
    17:00 +24°C° 0 mm 2 mps 678 mmHg 68%
    18:00 +21°C° 0 mm 2 mps 677 mmHg 74%
    19:00 +20°C° 0 mm 2 mps 678 mmHg 81%
    20:00 +19°C° 0 mm 1 mps 678 mmHg 88%
    21:00 +18°C° 0 mm 1 mps 679 mmHg 95%
    22:00 +18°C° 0 mm 1 mps 679 mmHg 94%
    23:00 +18°C° 0 mm 1 mps 679 mmHg 93%

    Day after tomorrow, 7 December, Saturday

    Time Temperature Precipitation Wind Pressure Humidity
    00:00 +16°C° 0 mm 1 mps 680 mmHg 93%
    01:00 +16°C° 0 mm 1 mps 679 mmHg 91%
    02:00 +16°C° 0 mm 1 mps 679 mmHg 90%
    03:00 +16°C° 0 mm 1 mps 679 mmHg 88%
    04:00 +16°C° 0 mm 1 mps 679 mmHg 90%
    05:00 +16°C° 0 mm 1 mps 679 mmHg 92%
    06:00 +14°C° 0 mm 0 mps 680 mmHg 93%
    07:00 +19°C° 0 mm 1 mps 680 mmHg 79%
    08:00 +21°C° 0 mm 1 mps 681 mmHg 66%
    09:00 +23°C° 0 mm 1 mps 682 mmHg 52%
    10:00 +25°C° 0 mm 1 mps 682 mmHg 46%
    11:00 +26°C° 0 mm 2 mps 682 mmHg 39%
    12:00 +27°C° 0 mm 2 mps 682 mmHg 33%
    13:00 +27°C° 0 mm 2 mps 681 mmHg 34%
    14:00 +27°C° 0 mm 2 mps 681 mmHg 35%
    15:00 +27°C° 0 mm 2 mps 681 mmHg 36%
    16:00 +26°C° 0 mm 3 mps 680 mmHg 45%
    17:00 +24°C° 0 mm 3 mps 680 mmHg 54%
    18:00 +21°C° 0 mm 3 mps 679 mmHg 63%
    19:00 +19°C° 0 mm 3 mps 680 mmHg 70%
    20:00 +18°C° 0 mm 3 mps 680 mmHg 77%
    21:00 +16°C° 0 mm 2 mps 680 mmHg 83%
    22:00 +16°C° 0 mm 2 mps 680 mmHg 86%
    23:00 +15°C° 0 mm 2 mps 681 mmHg 89%

    8 December, Sunday

    Time Temperature Precipitation Wind Pressure Humidity
    00:00 +15°C° 0 mm 1 mps 681 mmHg 92%
    01:00 +15°C° 0 mm 1 mps 681 mmHg 92%
    02:00 +15°C° 0 mm 1 mps 680 mmHg 92%
    03:00 +15°C° 0 mm 1 mps 680 mmHg 92%
    04:00 +14°C° 0 mm 1 mps 680 mmHg 92%
    05:00 +14°C° 0 mm 1 mps 680 mmHg 92%
    06:00 +14°C° 0 mm 1 mps 681 mmHg 93%
    07:00 +16°C° 0 mm 1 mps 681 mmHg 83%
    08:00 +18°C° 0 mm 2 mps 682 mmHg 73%
    09:00 +20°C° 0 mm 2 mps 683 mmHg 63%
    10:00 +23°C° 0 mm 2 mps 683 mmHg 57%
    11:00 +24°C° 0 mm 2 mps 683 mmHg 52%
    12:00 +26°C° 0 mm 2 mps 683 mmHg 46%
    13:00 +26°C° 0 mm 3 mps 682 mmHg 48%
    14:00 +26°C° 0 mm 3 mps 682 mmHg 49%
    15:00 +26°C° 0 mm 3 mps 681 mmHg 50%
    16:00 +24°C° 0 mm 3 mps 681 mmHg 58%
    17:00 +22°C° 0 mm 3 mps 681 mmHg 65%
    18:00 +20°C° 0 mm 3 mps 680 mmHg 73%
    19:00 +19°C° 0 mm 2 mps 680 mmHg 79%
    20:00 +18°C° 0 mm 2 mps 681 mmHg 85%
    21:00 +16°C° 0 mm 2 mps 681 mmHg 91%
    22:00 +16°C° 0 mm 2 mps 681 mmHg 90%
    23:00 +15°C° 0 mm 1 mps 681 mmHg 89%

    9 December, Monday

    Time Temperature Precipitation Wind Pressure Humidity
    00:00 +15°C° 0 mm 1 mps 681 mmHg 88%
    01:00 +15°C° 0 mm 1 mps 681 mmHg 84%
    02:00 +15°C° 0 mm 1 mps 680 mmHg 80%
    03:00 +15°C° 0 mm 1 mps 680 mmHg 77%
    04:00 +15°C° 0 mm 1 mps 680 mmHg 75%
    05:00 +14°C° 0 mm 1 mps 680 mmHg 74%
    06:00 +13°C° 0 mm 0 mps 680 mmHg 72%
    07:00 +18°C° 0 mm 1 mps 681 mmHg 60%
    08:00 +21°C° 0 mm 1 mps 681 mmHg 48%
    09:00 +24°C° 0 mm 1 mps 682 mmHg 35%
    10:00 +26°C° 0 mm 1 mps 682 mmHg 33%
    11:00 +28°C° 0 mm 1 mps 682 mmHg 31%
    12:00 +30°C° 0 mm 1 mps 683 mmHg 29%
    13:00 +30°C° 0 mm 1 mps 682 mmHg 29%
    14:00 +30°C° 0 mm 1 mps 681 mmHg 30%
    15:00 +31°C° 0 mm 1 mps 681 mmHg 30%
    16:00 +29°C° 0 mm 2 mps 681 mmHg 41%
    17:00 +26°C° 0 mm 2 mps 680 mmHg 52%
    18:00 +24°C° 0 mm 2 mps 680 mmHg 63%
    19:00 +23°C° 0 mm 2 mps 680 mmHg 71%
    20:00 +20°C° 0 mm 2 mps 680 mmHg 78%
    21:00 +19°C° 0 mm 1 mps 680 mmHg 86%
    22:00 +19°C° 0 mm 1 mps 680 mmHg 87%
    23:00 +18°C° 0 mm 1 mps 680 mmHg 88%

    10 December, Tuesday

    Time Temperature Precipitation Wind Pressure Humidity
    00:00 +15°C° 0 mm 0 mps 680 mmHg 90%
    01:00 +15°C° 0 mm 0 mps 680 mmHg 89%
    02:00 +15°C° 0 mm 0 mps 679 mmHg 88%
    03:00 +14°C° 0 mm 0 mps 679 mmHg 87%
    04:00 +14°C° 0 mm 0 mps 679 mmHg 86%
    05:00 +14°C° 0 mm 0 mps 680 mmHg 84%
    06:00 +15°C° 0 mm 0 mps 680 mmHg 83%
    07:00 +17°C° 0 mm 0 mps 680 mmHg 70%
    08:00 +22°C° 0 mm 1 mps 681 mmHg 57%
    09:00 +25°C° 0 mm 1 mps 682 mmHg 45%
    10:00 +27°C° 0 mm 1 mps 682 mmHg 40%
    11:00 +29°C° 0 mm 1 mps 682 mmHg 36%
    12:00 +31°C° 0 mm 1 mps 682 mmHg 32%
    13:00 +31°C° 0 mm 2 mps 681 mmHg 34%
    14:00 +31°C° 0 mm 2 mps 681 mmHg 36%
    15:00 +30°C° 0 mm 3 mps 680 mmHg 37%
    16:00 +28°C° 0.1 mm 2 mps 680 mmHg 48%
    17:00 +26°C° 0.1 mm 2 mps 679 mmHg 59%
    18:00 +24°C° 0.1 mm 2 mps 679 mmHg 70%
    19:00 +21°C° 0 mm 2 mps 679 mmHg 76%
    20:00 +20°C° 0 mm 2 mps 679 mmHg 82%
    21:00 +19°C° 0 mm 1 mps 679 mmHg 88%
    22:00 +19°C° 0 mm 1 mps 679 mmHg 89%
    23:00 +19°C° 0 mm 1 mps 679 mmHg 91%
    Show more